Regional Weather Roundup
Issued by NWS Newport/Morehead, NC

Current Version | Previous Version | Text Only | Print | Product List | Glossary Off
Versions: 1 2 3 4 5 6 7 8 9 10 11 12 13 14 15 16 17 18 19 20 21 22 23 24 25 26 27 28 29 30 31 32 33 34 35 36 37 38 39 40 41 42 43 44 45 46 47 48 49 50
000 ASUS42 KMHX 271310 RWRMHX WEATHER ROUNDUP FOR EASTERN NORTH CAROLINA NATIONAL WEATHER SERVICE NEWPORT/MOREHEAD CITY NC 800 AM EST THU NOV 27 2014 NOTE: "FAIR" INDICATES FEW OR NO CLOUDS BELOW 12,000 FEET WITH NO SIGNIFICANT WEATHER AND/OR OBSTRUCTIONS TO VISIBILITY NCZ015>017-031-032-045>047-102-103-271400- NORTH COAST CITY SKY/WX TMP DP RH WIND PRES REMARKS EDENTON CLOUDY 42 39 91 S6 30.07S ELIZABETH CITY CLOUDY 42 38 85 CALM 30.07S KITTY HAWK PTSUNNY 41 40 96 CALM 30.06S MANTEO PTSUNNY 41 38 88 SW3 30.08S $$ NCZ045>047-081-094-103-104-271400- CENTRAL COAST CITY SKY/WX TMP DP RH WIND PRES REMARKS FRISCO CLOUDY 43 42 97 CALM 30.08S SWANQUARTER N/A 45 N/A N/A E5 30.03S $$ NCZ095-097-098-100-101-271400- SOUTHERN COAST CITY SKY/WX TMP DP RH WIND PRES REMARKS BEAUFORT PTSUNNY 47 45 93 E3 30.06F CEDAR ISLAND N/A 46 N/A N/A E1 30.09F JACKSONVILLE CLOUDY 43 41 93 CALM 30.03F PINEY ISLAND PTSUNNY 47 41 80 E3 30.06F WILMINGTON CLOUDY 44 42 93 S3 30.04F $$ NCZ011>013-027>030-043-044-078>080-089-090>093-098-271400- COASTAL PLAIN CITY SKY/WX TMP DP RH WIND PRES REMARKS AHOSKIE LGT RAIN 38 37 96 CALM 30.06S CLINTON CLOUDY 41 41 100 CALM 30.02S ELIZABETHTOWN PTCLDY 41 41 100 S3 30.02R GOLDSBORO PTCLDY 39 39 98 E8 30.01F GREENVILLE MOSUNNY 41 37 87 S6 30.07S HAVELOCK CLOUDY 42 40 92 SE5 30.07S KENANSVILLE CLOUDY 39 39 100 CALM 30.03S KINSTON MOSUNNY 39 37 93 SE6 30.05S NEW BERN CLOUDY 43 39 86 CALM 30.07S RICHLANDS CLOUDY 41 37 87 SE3 30.03F ROCKY MOUNT CLOUDY 40 38 93 CALM 30.03F WASHINGTON PTSUNNY 40 38 92 SE3 30.06F WHITEVILLE SUNNY 45 38 77 SW8 30.04R $$ AMZ130-135-150-152-154-156-158-170-250-252-270-ANZ085-086-088-633-658-670-271400- MARINE OBSERVATIONS STATION/POSITION TIME TEMP WIND PRES WAVE SWELL AIR SEA DIR/SP/G HT/PER HT/PER (UTC) (F) (DEG/KT/KT) (MB) (FT/S) (FT/S) CHESAPEAKE LIGHT 1200 43 250/ 11/ 13 1018.5 64 E VA BEACH 1300 48 62 300/ 10/ 12 1017.5 8/10 7/10 DUCK 1300 44 54 220/ 1/ 3 1017.4 2 E DUCK 1300 56 N/A 5/10 2/11 10 NE DUCK 1300 58 N/A 5/10 2/11 OREGON INLET 1300 44 56 230/ 3/ 5 1018.5 13E OREGON INLT 1300 61 N/A 6/ 9 2/11 HATTERAS CG 1300 45 59 CALM 1018.8 DIAMOND BUOY 1300 52 CALM / 2 1018.5 5/ 9 5/ 9 17 S OCRACOKE NOT AVBL CAPE LOOKOUT 1200 49 180/ 3/ 5 1018.1 BEAUFORT LAB 1300 51 57 130/ 6/ 7 1016.9 30 SE NEW RIVER 1300 58 66 240/ 16/ 17 1017.8 3/ 9 3/ 9 5 SE WRIGHTSVLE 1200 52 59 230/ 12/ 16 1016.8 225 S CAPE HAT 1248 66 73 260/ 10/ 14 1020.1 8/ 8 8/ 8 41 SE CHARLESTON 1300 59 74 260/ 25/ 29 1018.5 7/ 6 2/ 9 $$

USA.gov is the U.S. government's official web portal to all federal, state and local government web resources and services.